Weather History for Atyrau, Kazakhstan

Change the Weather History Date:

Friday, February 8, 2013

  Actual Average Record
Temperature  
Mean Temperature 34 °F -  
Max Temperature 35 °F - - ()
Min Temperature 33 °F - - ()
Degree Days  
Heating Degree Days 31    
Moisture  
Dew Point 33 °F    
Average Humidity 97    
Maximum Humidity 100    
Minimum Humidity 93    
Precipitation  
Precipitation 0.00 in - - ()
Sea Level Pressure  
Sea Level Pressure 30.26 in    
Wind  
Wind Speed 16 mph ()    
Max Wind Speed 22 mph    
Max Gust Speed -    
Visibility 3.1 miles    
Events Rain    
T = Trace of Precipitation, MM = Missing Value Source: Averaged Metar Reports

Daily Weather History Graph

Daily Weather History Graph

Search for Another Location

Airport:

Trip Planner

Search our weather history database for the weather conditions in past years. The results will help you decide how hot, cold, wet, or windy it might be!

Date:

Astronomy

Feb. 08, 2013 Rise Set
Actual Time 8:48 AM AQTT 6:45 PM AQTT
Civil Twilight 8:16 AM AQTT 7:17 PM AQTT
Nautical Twilight 7:40 AM AQTT 7:54 PM AQTT
Astronomical Twilight 7:04 AM AQTT 8:29 PM AQTT
Moon 7:03 AM AQTT (2/8) 4:48 PM AQTT (2/8)
Length of Visible Light 11h 01m
Length of Day
9h 57m
Waning Crescent, 5% of the Moon is Illuminated
Feb 8
Waning Crescent
Feb 10
New
Feb 18
First Quarter
Feb 26
Full
Mar 5
Last Quarter

Hourly Weather History & Observations

Time (AQTT) Temp. Windchill Dew Point Humidity Pressure Visibility Wind Dir Wind Speed Gust Speed Precip Events Conditions
12:00 AM 33.8 °F 23.0 °F 33.8 °F 100% 30.15 in 3.1 mi ENE 17.9 mph - N/A   Light Drizzle
12:30 AM 33.8 °F 23.7 °F 33.8 °F 100% 30.15 in 3.1 mi ENE 15.7 mph - N/A   Mostly Cloudy
1:00 AM 33.8 °F 23.0 °F 33.8 °F 100% 30.15 in 3.1 mi ENE 17.9 mph - N/A Rain Light Rain
1:30 AM 33.8 °F 23.0 °F 33.8 °F 100% 30.18 in 3.1 mi East 17.9 mph - N/A Rain Light Rain
2:00 AM 33.8 °F 23.0 °F 33.8 °F 100% 30.18 in 3.1 mi East 17.9 mph - N/A Rain Light Rain
2:30 AM 33.8 °F 23.0 °F 33.8 °F 100% 30.18 in 3.1 mi East 17.9 mph - N/A Rain Light Rain
3:00 AM 33.8 °F 23.7 °F 33.8 °F 100% 30.18 in 3.1 mi East 15.7 mph - N/A   Mostly Cloudy
3:30 AM 33.8 °F 23.0 °F 33.8 °F 100% 30.18 in 3.1 mi East 17.9 mph - N/A   Mostly Cloudy
4:00 AM 33.8 °F 22.3 °F 33.8 °F 100% 30.18 in 3.1 mi East 20.1 mph - N/A Rain Light Rain
4:30 AM 33.8 °F 22.3 °F 33.8 °F 100% 30.18 in 3.1 mi East 20.1 mph - N/A Rain Light Rain
5:00 AM 33.8 °F 21.7 °F 33.8 °F 100% 30.18 in 3.1 mi East 22.4 mph - N/A Rain Light Rain
5:30 AM 33.8 °F 23.0 °F 33.8 °F 100% 30.18 in 3.1 mi East 17.9 mph - N/A Rain Light Rain
6:00 AM 33.8 °F 23.0 °F 33.8 °F 100% 30.18 in 3.1 mi East 17.9 mph - N/A Rain Light Rain
6:30 AM 33.8 °F 23.7 °F 33.8 °F 100% 30.18 in 3.1 mi East 15.7 mph - N/A Rain Light Rain
7:00 AM 33.8 °F 22.3 °F 33.8 °F 100% 30.21 in 3.1 mi East 20.1 mph - N/A Rain Light Rain
7:30 AM 33.8 °F 22.3 °F 33.8 °F 100% 30.18 in 3.1 mi East 20.1 mph - N/A Rain Light Rain
8:00 AM 33.8 °F 23.0 °F 33.8 °F 100% 30.21 in 3.1 mi East 17.9 mph - N/A Rain Light Rain
8:30 AM 33.8 °F 23.0 °F 33.8 °F 100% 30.21 in 3.1 mi East 17.9 mph - N/A Rain Light Rain
9:00 AM 33.8 °F 23.0 °F 33.8 °F 100% 30.21 in 3.1 mi East 17.9 mph - N/A   Overcast
9:30 AM 33.8 °F 23.0 °F 33.8 °F 100% 30.21 in 3.1 mi East 17.9 mph - N/A   Overcast
10:00 AM 33.8 °F 23.0 °F 33.8 °F 100% 30.24 in 3.1 mi East 17.9 mph - N/A   Overcast
10:30 AM 33.8 °F 22.3 °F 33.8 °F 100% 30.24 in 3.1 mi East 20.1 mph - N/A   Overcast
11:00 AM 33.8 °F 23.7 °F 33.8 °F 100% 30.27 in 3.1 mi East 15.7 mph - N/A   Overcast
11:30 AM 33.8 °F 23.7 °F 33.8 °F 100% 30.27 in 3.1 mi East 15.7 mph - N/A   Overcast
12:00 PM 35.6 °F 25.3 °F 33.8 °F 93% 30.27 in 3.1 mi East 17.9 mph - N/A   Overcast
12:30 PM 35.6 °F 25.3 °F 33.8 °F 93% 30.27 in 3.1 mi East 17.9 mph - N/A   Overcast
1:00 PM 35.6 °F 24.7 °F 33.8 °F 93% 30.27 in 3.1 mi East 20.1 mph - N/A   Overcast
1:30 PM 35.6 °F 24.7 °F 33.8 °F 93% 30.27 in 3.1 mi East 20.1 mph - N/A   Overcast
2:00 PM 35.6 °F 25.3 °F 33.8 °F 93% 30.27 in 3.1 mi East 17.9 mph - N/A   Overcast
2:30 PM 35.6 °F 25.3 °F 33.8 °F 93% 30.30 in 3.1 mi East 17.9 mph - N/A   Overcast
3:00 PM 35.6 °F 25.3 °F 33.8 °F 93% 30.27 in 3.1 mi East 17.9 mph - N/A   Overcast
3:30 PM 35.6 °F 25.3 °F 33.8 °F 93% 30.30 in 3.1 mi East 17.9 mph - N/A Rain Light Rain
4:00 PM 35.6 °F 26.0 °F 33.8 °F 93% 30.30 in 3.1 mi East 15.7 mph - N/A   Overcast
4:30 PM 35.6 °F 26.8 °F 33.8 °F 93% 30.33 in 3.1 mi East 13.4 mph - N/A   Mostly Cloudy
5:00 PM 35.6 °F 26.8 °F 33.8 °F 93% 30.33 in 3.1 mi East 13.4 mph - N/A   Mostly Cloudy
5:30 PM 35.6 °F 26.0 °F 33.8 °F 93% 30.33 in 3.1 mi East 15.7 mph - N/A   Mostly Cloudy
6:00 PM 35.6 °F 26.0 °F 33.8 °F 93% 30.33 in 3.1 mi East 15.7 mph - N/A   Mostly Cloudy
6:30 PM 35.6 °F 26.8 °F 33.8 °F 93% 30.36 in 3.1 mi East 13.4 mph - N/A   Mostly Cloudy
7:00 PM 35.6 °F 26.0 °F 33.8 °F 93% 30.36 in 3.1 mi East 15.7 mph - N/A   Mostly Cloudy
7:30 PM 33.8 °F 23.0 °F 32.0 °F 93% 30.36 in 3.1 mi East 17.9 mph - N/A   Mostly Cloudy
8:00 PM 33.8 °F 23.0 °F 32.0 °F 93% 30.36 in 3.1 mi East 17.9 mph - N/A   Mostly Cloudy
8:30 PM 33.8 °F 22.3 °F 32.0 °F 93% 30.36 in 3.1 mi East 20.1 mph - N/A   Mostly Cloudy
9:00 PM 33.8 °F 23.0 °F 32.0 °F 93% 30.39 in 3.1 mi East 17.9 mph - N/A   Mostly Cloudy
9:30 PM 33.8 °F 23.7 °F 32.0 °F 93% 30.39 in 3.1 mi East 15.7 mph - N/A   Mostly Cloudy
10:00 PM 33.8 °F 23.7 °F 32.0 °F 93% 30.39 in 3.1 mi East 15.7 mph - N/A   Mostly Cloudy
10:30 PM 33.8 °F 23.7 °F 32.0 °F 93% 30.39 in 3.1 mi East 15.7 mph - N/A   Mostly Cloudy
11:00 PM 33.8 °F 23.0 °F 32.0 °F 93% 30.39 in 3.1 mi East 17.9 mph - N/A   Mostly Cloudy
11:30 PM 33.8 °F 21.7 °F 32.0 °F 93% 30.39 in 3.1 mi East 22.4 mph - N/A   Mostly Cloudy